Location: Poughquag
(41.6090°N, 73.6820°W)
Time: 12:46:14
(UTC-04:00)

Tiros 1 - Pass Details

Date: 07 June 2020
Orbit: 630 x 664 km, 48.4° (Epoch: 06 July)

Event Time Altitude Azimuth Distance (km) Brightness Sun altitude
Rises 16:40:44 0° 295° (WNW) 2,958 11.3 39.5°
Reaches altitude 10° 16:43:09 10° 290° (WNW) 2,039 10.8 39.0°
Maximum altitude 16:47:38 45° 218° (SW) 868 8.8 38.2°
Drops below altitude 10° 16:52:02 10° 145° (SE) 2,010 9.5 37.4°
Sets 16:54:25 0° 139° (SE) 2,911 10.2 36.9°
